DW8016 Weather Reports


time (UTC)temp
F
wind
direction
speed
knots
gust
knots
rain 1hr
in
rain 24hr
in
rain mn
in
humidity
%
barometer
mb
20260506070853 70 234 4.3 8.7 0.00 0.00 0.00 60 1008.4
20260506061902 72 217 3.5 14.8 0.00 0.00 0.00 55 1008.6
20260506060848 72 190 4.3 14.8 0.00 0.00 0.00 55 1008.6
20260506050841 73 234 5.2 11.3 0.00 0.00 0.00 52 1009.0
20260506044828 73 172 5.2 12.2 0.00 0.00 0.00 52 1009.1
20260506042733 73 180 4.3 13.0 0.00 0.00 0.00 51 1009.1
20260506041736 73 217 6.1 12.2 0.00 0.00 0.00 51 1009.2
20260506035608 73 127 3.5 10.4 0.00 0.00 0.00 50 1009.2
20260506034607 73 229 4.3 12.2 0.00 0.00 0.00 50 1009.2
20260506033619 73 155 3.5 12.2 0.00 0.00 0.00 49 1009.1
20260506032610 73 167 3.5 10.4 0.00 0.00 0.00 49 1009.2
20260506031620 73 260 4.3 14.8 0.00 0.00 0.00 47 1009.2
20260506030612 74 173 3.5 14.8 0.00 0.00 0.00 47 1009.1
20260506024456 74 160 5.2 11.3 0.00 0.00 0.00 45 1009.1
20260506023424 75 188 3.5 11.3 0.00 0.00 0.00 44 1009.2
20260506022358 75 169 3.5 9.6 0.00 0.00 0.00 43 1009.3
20260506021324 75 208 3.5 8.7 0.00 0.00 0.00 42 1009.3
20260506020258 76 204 4.3 8.7 0.00 0.00 0.00 42 1009.1
20260506012939 76 191 3.5 10.4 0.00 0.00 0.00 39 1008.8
20260506011908 77 136 4.3 11.3 0.00 0.00 0.00 38 1008.7
20260506010927 77 220 3.5 11.3 0.00 0.00 0.00 37 1008.6
20260506005902 78 159 3.5 9.6 0.00 0.00 0.00 35 1008.4
20260506004922 78 223 2.6 8.7 0.00 0.00 0.00 34 1008.3
20260506003852 78 211 2.6 12.2 0.00 0.00 0.00 33 1008.1
20260506002823 79 180 3.5 10.4 0.00 0.00 0.00 32 1008.2
20260506001838 79 261 3.5 9.6 0.00 0.00 0.00 31 1008.2
20260506000817 79 196 3.5 11.3 0.00 0.00 0.00 30 1008.0
20260505235743 80 219 3.5 13.0 0.00 0.00 0.00 30 1007.9
20260505234728 80 169 4.3 13.0 0.00 0.00 0.00 30 1008.0
20260505233735 81 252 2.6 12.2 0.00 0.00 0.00 30 1007.8
20260505232707 81 224 4.3 12.2 0.00 0.00 0.00 30 1007.8
20260505231714 81 236 3.5 10.4 0.00 0.00 0.00 29 1007.8
20260505225547 82 225 4.3 13.0 0.00 0.00 0.00 27 1007.9
20260505224531 82 324 3.5 13.0 0.00 0.00 0.00 26 1007.8
20260505223459 82 252 4.3 13.0 0.00 0.00 0.00 26 1008.0
20260505221326 83 241 4.3 18.2 0.00 0.00 0.00 27 1007.8
20260505220341 83 249 7.0 18.2 0.00 0.00 0.00 26 1007.8
20260505215404 84 220 4.3 14.8 0.00 0.00 0.00 26 1007.8
20260505214405 84 255 4.3 14.8 0.00 0.00 0.00 26 1007.8
20260505213352 84 235 4.3 13.0 0.00 0.00 0.00 26 1007.6
20260505211143 84 307 2.6 10.4 0.00 0.00 0.00 27 1007.6
20260505205028 84 174 6.1 18.2 0.00 0.00 0.00 27 1007.6
20260505204043 85 317 6.1 17.4 0.00 0.00 0.00 27 1007.6
20260505203101 85 214 6.1 17.4 0.00 0.00 0.00 26 1007.7
20260505202041 86 42 4.3 18.2 0.00 0.00 0.00 26 1007.5
20260505201059 86 205 6.1 18.2 0.00 0.00 0.00 27 1007.6
20260505200109 85 182 7.0 18.2 0.00 0.00 0.00 27 1007.7
20260505195126 86 209 4.3 15.6 0.00 0.00 0.00 28 1007.8
20260505194136 86 199 5.2 19.1 0.00 0.00 0.00 29 1007.9
20260505193154 85 179 5.2 19.1 0.00 0.00 0.00 29 1008.0
20260505192158 86 201 6.1 17.4 0.00 0.00 0.00 28 1008.1
20260505190048 86 224 5.2 17.4 0.00 0.00 0.00 26 1008.4
20260505185025 85 274 5.2 15.6 0.00 0.00 0.00 28 1008.6
20260505184034 85 161 6.1 16.5 0.00 0.00 0.00 29 1008.8
20260505180756 86 180 4.3 17.4 0.00 0.00 0.00 30 1009.2
20260505175744 86 221 5.2 17.4 0.00 0.00 0.00 28 1009.3
20260505173633 86 201 5.2 16.5 0.00 0.00 0.00 30 1009.5
20260505171459 85 212 4.3 12.2 0.00 0.00 0.00 29 1009.6
20260505170520 84 263 4.3 12.2 0.00 0.00 0.00 31 1009.7
20260505165535 83 255 3.5 11.3 0.00 0.00 0.00 36 1009.8
20260505164539 83 228 3.5 11.3 0.00 0.00 0.00 36 1009.9
20260505163532 81 260 4.3 9.6 0.00 0.00 0.00 39 1010.1
20260505162530 82 229 3.5 10.4 0.00 0.00 0.00 38 1010.3
20260505161533 81 198 3.5 10.4 0.00 0.00 0.00 40 1010.6
20260505160517 81 194 3.5 9.6 0.00 0.00 0.00 39 1010.6
20260505152333 80 257 2.6 8.7 0.00 0.00 0.00 42 1011.0
20260505150212 78 200 4.3 9.6 0.00 0.00 0.00 42 1010.9
20260505124526 71 279 2.6 7.0 0.00 0.00 0.00 47 1011.2
20260505123509 69 215 2.6 7.8 0.00 0.00 0.00 48 1011.2
20260505122437 69 227 2.6 7.8 0.00 0.00 0.00 48 1011.3
20260505121404 68 259 2.6 7.0 0.00 0.00 0.00 50 1011.3
20260505120410 67 235 1.7 7.0 0.00 0.00 0.00 51 1011.1
20260505115348 65 226 0.9 5.2 0.00 0.00 0.00 54 1011.0
20260505113154 63 189 1.7 5.2 0.00 0.00 0.00 56 1010.8
20260505110944 62 235 0.9 8.7 0.00 0.00 0.00 57 1010.6
20260505101832 61 214 1.7 7.8 0.00 0.00 0.00 58 1010.1
20260505100854 61 188 1.7 7.8 0.00 0.00 0.00 59 1010.1
20260505095846 61 169 2.6 7.8 0.00 0.00 0.00 58 1010.1
20260505094831 62 213 2.6 7.0 0.00 0.00 0.00 58 1010.0
20260505093801 62 189 1.7 6.1 0.00 0.00 0.00 58 1009.9
20260505091601 62 173 2.6 7.0 0.00 0.00 0.00 58 1009.7
20260505090548 62 149 2.6 7.0 0.00 0.00 0.00 58 1009.6
20260505085523 62 234 1.7 7.8 0.00 0.00 0.00 58 1009.7
20260505084513 62 167 2.6 7.8 0.00 0.00 0.00 59 1009.7
20260505083501 62 161 2.6 7.8 0.00 0.00 0.00 60 1009.7
20260505081254 62 178 3.5 7.8 0.00 0.00 0.00 61 1009.7
20260505080237 62 163 2.6 7.8 0.00 0.00 0.00 61 1009.7
20260505075215 62 161 2.6 7.0 0.00 0.00 0.00 61 1009.6
20260505074210 62 217 2.6 6.1 0.00 0.00 0.00 61 1009.6
20260505072112 62 181 3.5 7.0 0.00 0.00 0.00 61 1009.6